Tracking 31027 objects as of 19-Jul-2025
HD Live streaming from Space Station
objects crossing your sky now

NOAA 16 DEB

Track NOAA 16 DEB now!
10-day predictions


NORAD ID: 41366
Int'l Code: 2000-055JK
Perigee: 766.3 km
Apogee: 814.1 km
Inclination: 98.9 °
Period: 100.5 minutes
Semi major axis: 7161 km
RCS: Unknown
Launch date: September 21, 2000
Source: United States (US)
Launch site: AIR FORCE WESTERN TEST RANGE (AFWTR)

Note: This is SATELLITE DEBRIS
Your satellite tracking list
STARLINK-1749
Track 1 satellite(s)




NASA's NSSDC Master Catalog

Two Line Element Set (TLE):
1 41366U 00055JK  25199.53325224  .00007385  00000-0  27180-2 0  9995
2 41366  98.9389 299.4435 0033328 145.1918 215.1453 14.32593252485972
Source of the keplerian elements: AFSPC